Regional Weather Roundup
Issued by NWS State College, PA

Home | Current Version | Previous Version | Text Only | Print | Product List | Glossary On
Versions: 1 2 3 4 5 6 7 8 9 10 11 12 13 14 15 16 17 18 19 20 21 22 23 24 25 26 27 28 29 30 31 32 33 34 35 36 37 38 39 40 41 42 43
000
ASUS41 KCTP 211110
RWRCTP

REGIONAL WEATHER ROUNDUP
NATIONAL WEATHER SERVICE STATE COLLEGE PA
600 AM EST WED FEB 21 2018

Note: "fair" indicates few or no clouds below 12,000 feet with no
significant weather and/or obstructions to visibility.

* = STATION THAT DOES NOT REPORT PRECIPITATION /E.G. RAIN...SNOW...ETC/
    THUNDER OR FOG.

PAZ002>004-007>009-013>016-020>023-029>032-211200-
WESTERN PENNSYLVANIA

CITY           SKY/WX    TMP DP  RH WIND       PRES   REMARKS
ERIE           CLOUDY    69  53  56 S18G35    30.04S
MEADVILLE      CLOUDY    64  52  64 S14G20    30.11S
FRANKLIN*      CLOUDY    61  50  67 S14       30.15S
NEW CASTLE     CLOUDY    66  52  60 VRB7      30.15R
BEAVER COUNTY  NOT AVBL
BUTLER*        CLOUDY    63  51  65 SW8       30.18S
PITTSBURGH INT FAIR      64  51  62 S8        30.16F
PITTSBURGH     MOCLDY    63  49  60 S13       30.18F
INDIANA*       CLOUDY    63  52  67 SW8       30.23F
LATROBE        CLOUDY    64  50  59 S9        30.21S
WASHINGTON CO* CLOUDY    67  52  58 S12       30.21F
$$

PAZ004>006-010>012-017>019-024>028-033>037-041-042-045-046-049>053-211200-
CENTRAL PENNSYLVANIA

CITY           SKY/WX    TMP DP  RH WIND       PRES   REMARKS
BRADFORD       CLOUDY    62  50  64 S8        30.17S
DUBOIS         CLOUDY    62  48  60 S9        30.18S
CLEARFIELD     FAIR      44  43  96 N5        30.21S FOG
JOHNSTOWN      FAIR      60  49  66 S13       30.24R
ALTOONA        FAIR      55  50  83 CALM      30.25S
STATE COLLEGE  CLEAR     55  52  88 W7        30.23S
WILLIAMSPORT   FOG       38  38 100 CALM      30.24R VSB 1/4
SELINSGROVE    FAIR      44  43  96 S3        30.25S
FT INDIANTOWN  FOG       45 N/A N/A CALM      30.29S VSB 1/4
CAPITAL CITY   FAIR      48  47  96 CALM      30.29R FOG
HARRISBURG     FAIR      45  44  97 E6        30.28S FOG
YORK           FAIR      60  56  86 S7        30.28S
$$

PAZ038>040-043-044-047-048-054-055-060>062-067>071-211200-
EASTERN PENNSYLVANIA

CITY           SKY/WX    TMP DP  RH WIND       PRES   REMARKS
SCRANTON       FAIR      54  53  97 CALM      30.25S
MOUNT POCONO   CLOUDY    52  52 100 SW8       30.28S
ALLENTOWN      FOG       43  41  93 CALM      30.30R VSB 1/4
QUAKERTOWN*    CLOUDY    59  59 100 S6        30.30S
READING        MOCLDY    57  57 100 S7        30.28S
LANCASTER      FOG       51  51 100 E3        30.29S VSB 1/4
COATESVILLE    CLOUDY    59 N/A N/A VRB5G12   30.32S HAZE
POTTSTOWN      CLOUDY    59  58  96 S3        30.31S
BLUE BELL      CLOUDY    59  59 100 SW8       30.32S
DOYLESTOWN     CLOUDY    60  58  92 SW9       30.30S
WILLOW GROVE   NOT AVBL
NORTH PHILA    CLOUDY    58  56  93 W5        30.33R FOG
PHILADELPHIA   CLOUDY    54  54 100 CALM      30.32S FOG
$$




USA.gov is the U.S. government's official web portal to all federal, state and local government web resources and services.